Location: Lane
(33.5226°N, 79.8788°W)
Time: 12:42:26
(UTC+00:00)

Vanguard 2 - Visible Passes

Search period start: 28 September 2022 00:00
Search period end: 08 October 2022 00:00
Orbit: 551 x 2935 km, 32.9° (Epoch: 28 September)

Date Brightness Start Highest point End Pass type
(mag) Time Alt. Az. Time Alt. Az. Time Alt. Az.
28 Sep 10.3 02:01:49 10° W 02:17:30 44° SW 02:20:43 39° S visible
29 Sep 10.4 00:05:41 10° WNW 00:23:31 70° SSW 00:35:42 19° SE visible
29 Sep 10.6 02:19:53 10° W 02:34:18 35° SW 02:37:04 33° SSW visible
30 Sep 10.5 00:23:18 10° WNW 00:40:48 61° SSW 00:52:07 21° SE visible
30 Sep 10.9 02:38:21 10° W 02:51:00 27° SW 02:53:30 25° SSW visible
01 Oct 10.7 00:40:58 10° WNW 00:57:56 52° SSW 01:08:37 21° SSE visible
01 Oct 11.2 02:57:33 10° W 03:07:39 19° SW 03:10:00 19° SW visible
02 Oct 10.9 00:58:48 10° W 01:14:55 43° SW 01:25:13 20° SSE visible
02 Oct 11.5 03:18:29 10° WSW 03:24:16 13° SW 03:26:37 12° SW visible
02 Oct 10.7 23:03:30 10° W 23:20:24 68° SSW 23:36:54 10° SE visible
03 Oct 11.1 01:16:52 10° W 01:31:48 35° SW 01:41:55 17° S visible
03 Oct 10.8 23:21:03 10° WNW 23:37:42 59° SSW 23:53:49 10° SE visible
04 Oct 11.3 01:35:22 10° W 01:48:36 27° SW 01:58:43 13° S visible
04 Oct 11.0 23:38:41 10° W 23:54:53 50° SSW 00:10:29 10° SE visible
05 Oct 11.5 01:54:39 10° W 02:05:23 20° SW 02:15:00 10° S visible
05 Oct 11.2 23:56:29 10° W 00:11:57 42° SW 00:26:51 10° SSE visible
06 Oct 11.7 02:15:44 10° WSW 02:22:10 13° SW 02:28:13 10° SSW visible
07 Oct 11.5 00:14:35 10° W 00:28:57 33° SW 00:42:51 10° SSE visible
